Notices

What's New in latest Release from April 7th, 2021:

- Updated Glossary, including Speed of Maximum Gust, and Total Hourly Precipitation

- Updated national and regional climate services offices contacts and prices information

- Addition of station inventory lists for 1981-2010, 1971-2000, and 1961-1990 Normals.

If you haven't already, please take our survey and provide feedback about our website: https://eccc.sondage-survey.ca/f/LanguageSelection.aspx?s=442ca660-fcf1-47c0-95a9-59707d6fd709

Hourly Data Report for July 09, 2020

TORONTO CITY
ONTARIO
Current Station Operator: ECCC - MSC

43°40'00.000" N
79°24'00.000" W
112.50 m
6158355
71508
XTO

Download Data

Hourly Data (July 2020)
Hourly Data Report for July 9, 2020
TIME
LST
Temp Definition
°C
Dew Point Definition
°C
Rel Hum Definition
%
Precip. Amount Definition
mm

Wind Dir Definition
10's deg

Wind Spd Definition
km/h
Visibility Definition
km
Stn Press Definition
kPa
Hmdx Definition


Wind Chill Definition


Weather Definition


00:00 24.6 18.9 70 0.0       99.90 31   LegendNANA
01:00 24.2 19.4 74 0.0       99.91 31   LegendNANA
02:00 24.8 19.6 73 0.0       99.91 32   LegendNANA
03:00 25.8 17.0 59 0.0       99.91 31   LegendNANA
04:00 24.5 17.1 64 0.0       99.94 30   LegendNANA
05:00 24.8 16.8 61 0.0       99.99 30   LegendNANA
06:00 24.1 17.4 66 0.0       100.04 30   LegendNANA
07:00 25.8 16.8 57 0.0       100.06 31   LegendNANA
08:00 28.1 18.6 57 0.0       100.04 35   LegendNANA
09:00 28.2 19.1 58 0.0       100.05 35   LegendNANA
10:00 29.8 19.6 54 0.0       100.02 37   LegendNANA
11:00 30.3 18.8 50 0.0       100.01 37   LegendNANA
12:00 31.8 16.6 40 0.0       100.04 37   LegendNANA
13:00 32.8 18.0 42 0.0       99.97 39   LegendNANA
14:00 33.6 17.5 39 0.0       99.93 39   LegendNANA
15:00 33.4 17.9 40 0.0       99.87 39   LegendNANA
16:00 32.8 19.2 45 0.0       99.84 40   LegendNANA
17:00 31.6 18.2 45 0.2       99.80 38   LegendNANA
18:00 30.3 20.3 55 0.0       99.80 38   LegendNANA
19:00 28.6 20.6 62 0.0       99.84 37   LegendNANA
20:00 27.4 20.8 67 0.0       99.87 36   LegendNANA
21:00 27.6 20.2 64 0.0       99.90 35   LegendNANA
22:00 27.4 19.9 63 0.0       99.86 35   LegendNANA
23:00 27.0 20.0 66 0.0       99.90 35   LegendNANA

Notes on Data Quality.

Legend

  • E = Estimated
  • M = Missing
  • NA = Not Available*
  • [empty] = Indicates an unobserved value
Date modified: